contact:dominique.lefevre@mio.osupytheas.fr, maurice.libes@osupytheas.fr, didier.mallarino@osupytheas.fr
Project:EMSO http://www.emso-fr.org/EMSO-France
Depth: 2436.0 m
Title:EMSO Ligure Ouest : Data MII capteur MICROCAT
DateTime_Computer,Latitude,Longitude,Temperature,Conductivity,Pressure,DateTime_Instrument
DateTime_Computer,Latitude,Longitude,degC,S m-1,dbar,DateTime_Instrument
2017-11-09T00:01:53Z,42.805,6.029,13.2951,4.59979,2472.092,2017-11-09T02:03:19Z
2017-11-09T00:04:56Z,42.805,6.029,13.2953,4.59992,2472.047,2017-11-09T02:06:22Z
2017-11-09T00:07:58Z,42.805,6.029,13.2954,4.59985,2472.047,2017-11-09T02:09:25Z
2017-11-09T00:11:01Z,42.805,6.029,13.2951,4.60004,2472.069,2017-11-09T02:12:28Z
2017-11-09T00:14:04Z,42.805,6.029,13.2948,4.59984,2472.055,2017-11-09T02:15:31Z
2017-11-09T00:17:07Z,42.805,6.029,13.2951,4.59991,2472.069,2017-11-09T02:18:34Z
2017-11-09T00:20:10Z,42.805,6.029,13.2958,4.59982,2472.047,2017-11-09T02:21:37Z
2017-11-09T00:23:13Z,42.805,6.029,13.2950,4.59987,2472.055,2017-11-09T02:24:40Z
2017-11-09T00:26:16Z,42.805,6.029,13.2950,4.59990,2472.047,2017-11-09T02:27:43Z
2017-11-09T00:29:19Z,42.805,6.029,13.2949,4.59992,2472.047,2017-11-09T02:30:45Z
2017-11-09T00:32:22Z,42.805,6.029,13.2953,4.59991,2472.032,2017-11-09T02:33:48Z
2017-11-09T00:35:24Z,42.805,6.029,13.2957,4.59996,2472.047,2017-11-09T02:36:51Z
2017-11-09T00:38:27Z,42.805,6.029,13.2957,4.60008,2472.01,2017-11-09T02:39:54Z
2017-11-09T00:41:30Z,42.805,6.029,13.2945,4.59987,2472.032,2017-11-09T02:42:57Z
2017-11-09T00:44:33Z,42.805,6.029,13.2944,4.59980,2472.032,2017-11-09T02:46:00Z
2017-11-09T00:47:36Z,42.805,6.029,13.2953,4.59977,2472.047,2017-11-09T02:49:03Z
2017-11-09T00:50:39Z,42.805,6.029,13.2954,4.59990,2472.032,2017-11-09T02:52:06Z
2017-11-09T00:53:42Z,42.805,6.029,13.2953,4.59981,2472.024,2017-11-09T02:55:09Z
2017-11-09T00:56:45Z,42.805,6.029,13.2954,4.59990,2472.047,2017-11-09T02:58:11Z
2017-11-09T00:59:48Z,42.805,6.029,13.2946,4.59990,2472.032,2017-11-09T03:01:14Z
2017-11-09T01:02:50Z,42.805,6.029,13.2949,4.59982,2471.987,2017-11-09T03:04:17Z
2017-11-09T01:05:53Z,42.805,6.029,13.2953,4.59984,2472.047,2017-11-09T03:07:20Z
2017-11-09T01:08:56Z,42.805,6.029,13.2958,4.59993,2472.024,2017-11-09T03:10:23Z
2017-11-09T01:11:59Z,42.805,6.029,13.2961,4.60010,2472.069,2017-11-09T03:13:26Z
2017-11-09T01:15:02Z,42.805,6.029,13.2952,4.60000,2472.024,2017-11-09T03:16:29Z
2017-11-09T01:18:05Z,42.805,6.029,13.2951,4.59992,2472.024,2017-11-09T03:19:32Z
2017-11-09T01:21:08Z,42.805,6.029,13.2953,4.59998,2472.069,2017-11-09T03:22:35Z
2017-11-09T01:24:11Z,42.805,6.029,13.2955,4.60008,2472.047,2017-11-09T03:25:37Z
2017-11-09T01:27:14Z,42.805,6.029,13.2966,4.59989,2472.032,2017-11-09T03:28:40Z
2017-11-09T01:30:16Z,42.805,6.029,13.2957,4.60016,2472.01,2017-11-09T03:31:43Z
2017-11-09T01:33:19Z,42.805,6.029,13.2959,4.60016,2472.024,2017-11-09T03:34:46Z
2017-11-09T01:36:22Z,42.805,6.029,13.2961,4.60020,2472.002,2017-11-09T03:37:49Z
2017-11-09T01:39:25Z,42.805,6.029,13.2951,4.59990,2472.002,2017-11-09T03:40:52Z
2017-11-09T01:42:28Z,42.805,6.029,13.2946,4.59981,2472.002,2017-11-09T03:43:55Z
2017-11-09T01:45:31Z,42.805,6.029,13.2948,4.59980,2472.024,2017-11-09T03:46:58Z
2017-11-09T01:48:34Z,42.805,6.029,13.2944,4.59972,2472.047,2017-11-09T03:50:01Z
2017-11-09T01:51:37Z,42.805,6.029,13.2950,4.59983,2472.024,2017-11-09T03:53:03Z
2017-11-09T01:54:40Z,42.805,6.029,13.2950,4.59980,2472.032,2017-11-09T03:56:06Z
2017-11-09T01:57:42Z,42.805,6.029,13.2957,4.60017,2472.047,2017-11-09T03:59:09Z
2017-11-09T02:00:45Z,42.805,6.029,13.2964,4.60018,2472.002,2017-11-09T04:02:12Z
2017-11-09T02:03:48Z,42.805,6.029,13.2973,4.60012,2471.987,2017-11-09T04:05:15Z
2017-11-09T02:06:51Z,42.805,6.029,13.2980,4.60015,2472.002,2017-11-09T04:08:18Z
2017-11-09T02:09:54Z,42.805,6.029,13.2958,4.59992,2472.024,2017-11-09T04:11:21Z
2017-11-09T02:12:57Z,42.805,6.029,13.2962,4.60001,2472.024,2017-11-09T04:14:24Z
2017-11-09T02:16:00Z,42.805,6.029,13.2977,4.60026,2472.002,2017-11-09T04:17:27Z
2017-11-09T02:19:03Z,42.805,6.029,13.2964,4.60029,2472.002,2017-11-09T04:20:29Z
2017-11-09T02:22:05Z,42.805,6.029,13.2967,4.60027,2471.979,2017-11-09T04:23:32Z
2017-11-09T02:25:08Z,42.805,6.029,13.2965,4.60032,2472.002,2017-11-09T04:26:35Z
2017-11-09T02:28:11Z,42.805,6.029,13.2969,4.60032,2472.024,2017-11-09T04:29:38Z
2017-11-09T02:31:14Z,42.805,6.029,13.2959,4.60016,2472.024,2017-11-09T04:32:41Z
2017-11-09T02:34:17Z,42.805,6.029,13.2978,4.60028,2472.024,2017-11-09T04:35:44Z
2017-11-09T02:37:20Z,42.805,6.029,13.2973,4.60028,2471.979,2017-11-09T04:38:47Z
2017-11-09T02:40:23Z,42.805,6.029,13.2958,4.60014,2472.024,2017-11-09T04:41:50Z
2017-11-09T02:43:26Z,42.805,6.029,13.2977,4.60016,2471.964,2017-11-09T04:44:52Z
2017-11-09T02:46:29Z,42.805,6.029,13.2971,4.60017,2472.002,2017-11-09T04:47:55Z
2017-11-09T02:49:32Z,42.805,6.029,13.2973,4.60008,2471.987,2017-11-09T04:50:58Z
2017-11-09T02:52:34Z,42.805,6.029,13.2968,4.60033,2471.979,2017-11-09T04:54:01Z
2017-11-09T02:55:37Z,42.805,6.029,13.2982,4.60042,2471.964,2017-11-09T04:57:04Z
2017-11-09T02:58:40Z,42.805,6.029,13.2968,4.60030,2471.979,2017-11-09T05:00:07Z
2017-11-09T03:01:43Z,42.805,6.029,13.2988,4.60022,2472.002,2017-11-09T05:03:10Z
2017-11-09T03:04:46Z,42.805,6.029,13.2982,4.59986,2471.971,2017-11-09T05:06:13Z
2017-11-09T03:07:49Z,42.805,6.029,13.2962,4.60033,2471.979,2017-11-09T05:09:16Z
2017-11-09T03:10:52Z,42.805,6.029,13.2978,4.60026,2471.987,2017-11-09T05:12:18Z
2017-11-09T03:13:55Z,42.805,6.029,13.2967,4.60024,2472.002,2017-11-09T05:15:21Z
2017-11-09T03:16:57Z,42.805,6.029,13.2967,4.60040,2471.942,2017-11-09T05:18:24Z
2017-11-09T03:20:00Z,42.805,6.029,13.2969,4.60011,2471.964,2017-11-09T05:21:27Z
2017-11-09T03:23:03Z,42.805,6.029,13.2979,4.60027,2471.979,2017-11-09T05:24:30Z
2017-11-09T03:26:06Z,42.805,6.029,13.2960,4.60026,2472.002,2017-11-09T05:27:33Z
2017-11-09T03:29:09Z,42.805,6.029,13.2961,4.60049,2471.942,2017-11-09T05:30:36Z
2017-11-09T03:32:12Z,42.805,6.029,13.2985,4.60033,2471.979,2017-11-09T05:33:39Z
2017-11-09T03:35:15Z,42.805,6.029,13.2960,4.60042,2471.979,2017-11-09T05:36:42Z
2017-11-09T03:38:18Z,42.805,6.029,13.2973,4.60021,2471.919,2017-11-09T05:39:44Z
2017-11-09T03:41:21Z,42.805,6.029,13.2970,4.60026,2471.964,2017-11-09T05:42:47Z
2017-11-09T03:44:23Z,42.805,6.029,13.2981,4.60026,2471.979,2017-11-09T05:45:50Z
2017-11-09T03:47:26Z,42.805,6.029,13.2987,4.60015,2471.979,2017-11-09T05:48:53Z
2017-11-09T03:50:29Z,42.805,6.029,13.2957,4.60052,2471.957,2017-11-09T05:51:56Z
2017-11-09T03:53:32Z,42.805,6.029,13.2975,4.60041,2471.979,2017-11-09T05:54:59Z
2017-11-09T03:56:35Z,42.805,6.029,13.2977,4.60032,2471.957,2017-11-09T05:58:02Z
2017-11-09T03:59:38Z,42.805,6.029,13.2982,4.60049,2471.979,2017-11-09T06:01:05Z
2017-11-09T04:02:41Z,42.805,6.029,13.2973,4.60049,2471.964,2017-11-09T06:04:08Z
2017-11-09T04:05:44Z,42.805,6.029,13.2961,4.60011,2471.979,2017-11-09T06:07:10Z
2017-11-09T04:08:47Z,42.805,6.029,13.2973,4.60020,2471.957,2017-11-09T06:10:13Z
2017-11-09T04:11:49Z,42.805,6.029,13.2980,4.60018,2471.979,2017-11-09T06:13:16Z
2017-11-09T04:14:52Z,42.805,6.029,13.2985,4.60025,2471.957,2017-11-09T06:16:19Z
2017-11-09T04:17:55Z,42.805,6.029,13.2992,4.60022,2471.942,2017-11-09T06:19:22Z
2017-11-09T04:20:58Z,42.805,6.029,13.2991,4.60011,2471.979,2017-11-09T06:22:25Z
2017-11-09T04:24:01Z,42.805,6.029,13.2962,4.59999,2471.971,2017-11-09T06:25:28Z
2017-11-09T04:27:04Z,42.805,6.029,13.2984,4.60041,2471.957,2017-11-09T06:28:31Z
2017-11-09T04:30:07Z,42.805,6.029,13.2996,4.60049,2471.942,2017-11-09T06:31:34Z
2017-11-09T04:33:10Z,42.805,6.029,13.2994,4.60004,2471.971,2017-11-09T06:34:36Z
2017-11-09T04:36:13Z,42.805,6.029,13.2992,4.60015,2471.957,2017-11-09T06:37:39Z
2017-11-09T04:39:15Z,42.805,6.029,13.2980,4.59985,2471.957,2017-11-09T06:40:42Z
2017-11-09T04:42:18Z,42.805,6.029,13.2975,4.60016,2471.979,2017-11-09T06:43:45Z
2017-11-09T04:45:21Z,42.805,6.029,13.2988,4.60055,2471.957,2017-11-09T06:46:48Z
2017-11-09T04:48:24Z,42.805,6.029,13.2994,4.60018,2472.002,2017-11-09T06:49:51Z
2017-11-09T04:51:27Z,42.805,6.029,13.2980,4.60035,2471.942,2017-11-09T06:52:54Z
2017-11-09T04:54:30Z,42.805,6.029,13.2996,4.60029,2471.942,2017-11-09T06:55:57Z
2017-11-09T04:57:33Z,42.805,6.029,13.3002,4.60018,2471.957,2017-11-09T06:59:00Z
2017-11-09T05:00:36Z,42.805,6.029,13.3008,4.60041,2471.934,2017-11-09T07:02:02Z
2017-11-09T05:03:38Z,42.805,6.029,13.2993,4.60078,2471.934,2017-11-09T07:05:05Z
2017-11-09T05:06:41Z,42.805,6.029,13.3003,4.60024,2471.957,2017-11-09T07:08:08Z
2017-11-09T05:09:44Z,42.805,6.029,13.2988,4.60029,2471.919,2017-11-09T07:11:11Z
2017-11-09T05:12:47Z,42.805,6.029,13.3011,4.60037,2471.934,2017-11-09T07:14:14Z
2017-11-09T05:15:50Z,42.805,6.029,13.2986,4.60006,2471.971,2017-11-09T07:17:17Z
2017-11-09T05:18:53Z,42.805,6.029,13.2995,4.60033,2471.957,2017-11-09T07:20:20Z
2017-11-09T05:21:56Z,42.805,6.029,13.2998,4.60011,2471.964,2017-11-09T07:23:23Z
2017-11-09T05:24:59Z,42.805,6.029,13.2987,4.60019,2471.934,2017-11-09T07:26:26Z
2017-11-09T05:28:02Z,42.805,6.029,13.2977,4.60032,2471.979,2017-11-09T07:29:28Z
2017-11-09T05:31:05Z,42.805,6.029,13.2966,4.60035,2471.957,2017-11-09T07:32:31Z
2017-11-09T05:34:07Z,42.805,6.029,13.2969,4.60064,2471.942,2017-11-09T07:35:34Z
2017-11-09T05:37:10Z,42.805,6.029,13.2983,4.60032,2471.942,2017-11-09T07:38:37Z
2017-11-09T05:40:13Z,42.805,6.029,13.2979,4.60063,2472.002,2017-11-09T07:41:40Z
2017-11-09T05:43:16Z,42.805,6.029,13.2967,4.60028,2471.957,2017-11-09T07:44:43Z
2017-11-09T05:46:19Z,42.805,6.029,13.2977,4.60053,2471.912,2017-11-09T07:47:46Z
2017-11-09T05:49:22Z,42.805,6.029,13.2964,4.60009,2471.957,2017-11-09T07:50:49Z
2017-11-09T05:52:25Z,42.805,6.029,13.2968,4.59988,2471.957,2017-11-09T07:53:52Z
2017-11-09T05:55:28Z,42.805,6.029,13.2963,4.60000,2471.934,2017-11-09T07:56:54Z
2017-11-09T05:58:30Z,42.805,6.029,13.2961,4.59985,2471.957,2017-11-09T07:59:57Z
2017-11-09T06:01:33Z,42.805,6.029,13.2970,4.59978,2471.942,2017-11-09T08:03:00Z
2017-11-09T06:04:36Z,42.805,6.029,13.2979,4.60001,2471.942,2017-11-09T08:06:03Z
2017-11-09T06:07:39Z,42.805,6.029,13.2978,4.59979,2471.957,2017-11-09T08:09:06Z
2017-11-09T06:10:42Z,42.805,6.029,13.2981,4.60016,2471.979,2017-11-09T08:12:09Z
2017-11-09T06:13:45Z,42.805,6.029,13.2988,4.60001,2471.957,2017-11-09T08:15:12Z
2017-11-09T06:16:48Z,42.805,6.029,13.2990,4.60003,2471.957,2017-11-09T08:18:15Z
2017-11-09T06:19:51Z,42.805,6.029,13.3001,4.60032,2471.942,2017-11-09T08:21:17Z
2017-11-09T06:22:54Z,42.805,6.029,13.2963,4.60011,2471.942,2017-11-09T08:24:20Z
2017-11-09T06:25:56Z,42.805,6.029,13.2966,4.59982,2471.957,2017-11-09T08:27:23Z
2017-11-09T06:28:59Z,42.805,6.029,13.2970,4.60002,2471.979,2017-11-09T08:30:26Z
2017-11-09T06:32:02Z,42.805,6.029,13.2964,4.59990,2471.979,2017-11-09T08:33:29Z
2017-11-09T06:35:05Z,42.805,6.029,13.2966,4.60002,2471.942,2017-11-09T08:36:32Z
2017-11-09T06:38:08Z,42.805,6.029,13.2964,4.60005,2472.002,2017-11-09T08:39:35Z
2017-11-09T06:41:11Z,42.805,6.029,13.2970,4.59978,2472.002,2017-11-09T08:42:38Z
2017-11-09T06:44:14Z,42.805,6.029,13.2980,4.59975,2472.002,2017-11-09T08:45:41Z
2017-11-09T06:47:17Z,42.805,6.029,13.3015,4.59989,2471.979,2017-11-09T08:48:43Z
2017-11-09T06:50:20Z,42.805,6.029,13.2968,4.60013,2471.987,2017-11-09T08:51:46Z
2017-11-09T06:53:22Z,42.805,6.029,13.2987,4.60033,2471.979,2017-11-09T08:54:49Z
2017-11-09T06:56:25Z,42.805,6.029,13.2965,4.60031,2471.979,2017-11-09T08:57:52Z
2017-11-09T06:59:28Z,42.805,6.029,13.2979,4.59989,2471.987,2017-11-09T09:00:55Z
2017-11-09T07:02:31Z,42.805,6.029,13.2991,4.60016,2472.002,2017-11-09T09:03:58Z
2017-11-09T07:05:34Z,42.805,6.029,13.3008,4.60012,2472.002,2017-11-09T09:07:01Z
2017-11-09T07:08:37Z,42.805,6.029,13.3027,4.60023,2472.01,2017-11-09T09:10:04Z
2017-11-09T07:11:40Z,42.805,6.029,13.3046,4.59989,2472.002,2017-11-09T09:13:07Z
2017-11-09T07:14:43Z,42.805,6.029,13.2962,4.60025,2472.01,2017-11-09T09:16:09Z
2017-11-09T07:17:46Z,42.805,6.029,13.3008,4.60013,2472.01,2017-11-09T09:19:12Z
2017-11-09T07:20:48Z,42.805,6.029,13.2994,4.60015,2472.024,2017-11-09T09:22:15Z
2017-11-09T07:23:51Z,42.805,6.029,13.2968,4.60049,2472.047,2017-11-09T09:25:18Z
2017-11-09T07:26:54Z,42.805,6.029,13.2985,4.60029,2472.024,2017-11-09T09:28:21Z
2017-11-09T07:29:57Z,42.805,6.029,13.2993,4.60083,2472.002,2017-11-09T09:31:24Z
2017-11-09T07:33:00Z,42.805,6.029,13.2981,4.60062,2472.024,2017-11-09T09:34:27Z
2017-11-09T07:36:03Z,42.805,6.029,13.2985,4.60043,2472.024,2017-11-09T09:37:30Z
2017-11-09T07:39:06Z,42.805,6.029,13.2986,4.60030,2472.047,2017-11-09T09:40:33Z
2017-11-09T07:42:09Z,42.805,6.029,13.2968,4.60061,2472.069,2017-11-09T09:43:35Z
2017-11-09T07:45:12Z,42.805,6.029,13.2977,4.60049,2472.024,2017-11-09T09:46:38Z
2017-11-09T07:48:14Z,42.805,6.029,13.2987,4.60013,2472.047,2017-11-09T09:49:41Z
2017-11-09T07:51:17Z,42.805,6.029,13.2975,4.60032,2472.047,2017-11-09T09:52:44Z
2017-11-09T07:54:20Z,42.805,6.029,13.2974,4.60088,2472.047,2017-11-09T09:55:47Z
2017-11-09T07:57:23Z,42.805,6.029,13.2982,4.60026,2472.055,2017-11-09T09:58:50Z
2017-11-09T08:00:26Z,42.805,6.029,13.2980,4.60001,2472.032,2017-11-09T10:01:53Z
2017-11-09T08:03:29Z,42.805,6.029,13.2971,4.60018,2472.069,2017-11-09T10:04:56Z
2017-11-09T08:06:32Z,42.805,6.029,13.2970,4.60024,2472.069,2017-11-09T10:07:59Z
2017-11-09T08:09:35Z,42.805,6.029,13.2970,4.60026,2472.077,2017-11-09T10:11:01Z
2017-11-09T08:12:38Z,42.805,6.029,13.2979,4.60018,2472.069,2017-11-09T10:14:04Z
2017-11-09T08:15:40Z,42.805,6.029,13.2970,4.60018,2472.032,2017-11-09T10:17:07Z
2017-11-09T08:18:43Z,42.805,6.029,13.2967,4.60019,2472.092,2017-11-09T10:20:10Z
2017-11-09T08:21:46Z,42.805,6.029,13.2986,4.60019,2472.069,2017-11-09T10:23:13Z
2017-11-09T08:24:49Z,42.805,6.029,13.2981,4.60015,2472.115,2017-11-09T10:26:16Z
2017-11-09T08:27:52Z,42.805,6.029,13.2972,4.60028,2472.092,2017-11-09T10:29:19Z
2017-11-09T08:30:55Z,42.805,6.029,13.2973,4.60072,2472.055,2017-11-09T10:32:22Z
2017-11-09T08:33:58Z,42.805,6.029,13.2986,4.60029,2472.115,2017-11-09T10:35:25Z
2017-11-09T08:37:01Z,42.805,6.029,13.2979,4.60059,2472.092,2017-11-09T10:38:27Z
2017-11-09T08:40:04Z,42.805,6.029,13.2979,4.59995,2472.137,2017-11-09T10:41:30Z
2017-11-09T08:43:06Z,42.805,6.029,13.2978,4.60070,2472.115,2017-11-09T10:44:33Z
2017-11-09T08:46:09Z,42.805,6.029,13.2970,4.60093,2472.115,2017-11-09T10:47:36Z
2017-11-09T08:49:12Z,42.805,6.029,13.2986,4.60082,2472.077,2017-11-09T10:50:39Z
2017-11-09T08:52:15Z,42.805,6.029,13.2975,4.60051,2472.137,2017-11-09T10:53:42Z
2017-11-09T08:55:18Z,42.805,6.029,13.2983,4.60053,2472.1,2017-11-09T10:56:45Z
2017-11-09T08:58:21Z,42.805,6.029,13.2988,4.60074,2472.115,2017-11-09T10:59:48Z
2017-11-09T09:01:24Z,42.805,6.029,13.2993,4.60046,2472.115,2017-11-09T11:02:51Z
2017-11-09T09:04:27Z,42.805,6.029,13.2968,4.60040,2472.137,2017-11-09T11:05:54Z
2017-11-09T09:07:30Z,42.805,6.029,13.2973,4.60045,2472.123,2017-11-09T11:08:56Z
2017-11-09T09:10:32Z,42.805,6.029,13.2969,4.60009,2472.1,2017-11-09T11:11:59Z
2017-11-09T09:13:35Z,42.805,6.029,13.2972,4.60078,2472.137,2017-11-09T11:15:02Z
2017-11-09T09:16:38Z,42.805,6.029,13.2976,4.60043,2472.145,2017-11-09T11:18:05Z
2017-11-09T09:19:41Z,42.805,6.029,13.2964,4.60023,2472.137,2017-11-09T11:21:08Z
2017-11-09T09:22:44Z,42.805,6.029,13.2965,4.60045,2472.137,2017-11-09T11:24:11Z
2017-11-09T09:25:47Z,42.805,6.029,13.2970,4.60048,2472.137,2017-11-09T11:27:14Z
2017-11-09T09:28:50Z,42.805,6.029,13.2962,4.60036,2472.16,2017-11-09T11:30:17Z
2017-11-09T09:31:53Z,42.805,6.029,13.2969,4.60002,2472.145,2017-11-09T11:33:19Z
2017-11-09T09:34:56Z,42.805,6.029,13.2959,4.59992,2472.16,2017-11-09T11:36:22Z
2017-11-09T09:37:58Z,42.805,6.029,13.2957,4.60011,2472.137,2017-11-09T11:39:25Z
2017-11-09T09:41:01Z,42.805,6.029,13.2961,4.59995,2472.16,2017-11-09T11:42:28Z
2017-11-09T09:44:04Z,42.805,6.029,13.2949,4.59988,2472.16,2017-11-09T11:45:31Z
2017-11-09T09:47:07Z,42.805,6.029,13.2956,4.59990,2472.145,2017-11-09T11:48:34Z
2017-11-09T09:50:10Z,42.805,6.029,13.2954,4.59987,2472.137,2017-11-09T11:51:37Z
2017-11-09T09:53:13Z,42.805,6.029,13.2949,4.59987,2472.16,2017-11-09T11:54:40Z
2017-11-09T09:56:16Z,42.805,6.029,13.2966,4.60002,2472.16,2017-11-09T11:57:43Z
2017-11-09T09:59:19Z,42.805,6.029,13.2953,4.59984,2472.182,2017-11-09T12:00:46Z
2017-11-09T10:02:22Z,42.805,6.029,13.2957,4.59995,2472.16,2017-11-09T12:03:48Z
2017-11-09T10:05:25Z,42.805,6.029,13.2954,4.60005,2472.182,2017-11-09T12:06:51Z
2017-11-09T10:08:27Z,42.805,6.029,13.2962,4.59984,2472.182,2017-11-09T12:09:54Z
2017-11-09T10:11:30Z,42.805,6.029,13.2971,4.60002,2472.16,2017-11-09T12:12:57Z
2017-11-09T10:14:33Z,42.805,6.029,13.2951,4.59976,2472.145,2017-11-09T12:16:00Z
2017-11-09T10:17:36Z,42.805,6.029,13.2957,4.59982,2472.145,2017-11-09T12:19:03Z
2017-11-09T10:20:39Z,42.805,6.029,13.2955,4.59995,2472.182,2017-11-09T12:22:06Z
2017-11-09T10:23:42Z,42.805,6.029,13.2950,4.59980,2472.168,2017-11-09T12:25:09Z
2017-11-09T10:26:45Z,42.805,6.029,13.2959,4.59984,2472.182,2017-11-09T12:28:12Z
2017-11-09T10:29:48Z,42.805,6.029,13.2957,4.59984,2472.16,2017-11-09T12:31:14Z
2017-11-09T10:32:51Z,42.805,6.029,13.2954,4.59979,2472.16,2017-11-09T12:34:17Z
2017-11-09T10:35:53Z,42.805,6.029,13.2953,4.60003,2472.182,2017-11-09T12:37:20Z
2017-11-09T10:38:56Z,42.805,6.029,13.2950,4.59997,2472.16,2017-11-09T12:40:23Z
2017-11-09T10:41:59Z,42.805,6.029,13.2970,4.59986,2472.16,2017-11-09T12:43:26Z
2017-11-09T10:45:02Z,42.805,6.029,13.2949,4.60004,2472.182,2017-11-09T12:46:29Z
2017-11-09T10:48:05Z,42.805,6.029,13.2951,4.59998,2472.168,2017-11-09T12:49:32Z
2017-11-09T10:51:08Z,42.805,6.029,13.2958,4.60004,2472.16,2017-11-09T12:52:35Z
2017-11-09T10:54:11Z,42.805,6.029,13.2970,4.60009,2472.16,2017-11-09T12:55:38Z
2017-11-09T10:57:14Z,42.805,6.029,13.2964,4.59987,2472.145,2017-11-09T12:58:41Z
2017-11-09T11:00:17Z,42.805,6.029,13.2955,4.60010,2472.205,2017-11-09T13:01:43Z
2017-11-09T11:03:19Z,42.805,6.029,13.2956,4.59984,2472.145,2017-11-09T13:04:46Z
2017-11-09T11:06:22Z,42.805,6.029,13.2958,4.60007,2472.182,2017-11-09T13:07:49Z
2017-11-09T11:09:25Z,42.805,6.029,13.2953,4.59985,2472.168,2017-11-09T13:10:52Z
2017-11-09T11:12:28Z,42.805,6.029,13.2951,4.59979,2472.182,2017-11-09T13:13:55Z
2017-11-09T11:15:31Z,42.805,6.029,13.2960,4.59984,2472.16,2017-11-09T13:16:58Z
2017-11-09T11:18:34Z,42.805,6.029,13.2958,4.59997,2472.145,2017-11-09T13:20:01Z
2017-11-09T11:21:37Z,42.805,6.029,13.2954,4.59996,2472.168,2017-11-09T13:23:04Z
2017-11-09T11:24:40Z,42.805,6.029,13.2948,4.59997,2472.182,2017-11-09T13:26:07Z
2017-11-09T11:27:43Z,42.805,6.029,13.2951,4.59981,2472.205,2017-11-09T13:29:09Z
2017-11-09T11:30:46Z,42.805,6.029,13.2948,4.59983,2472.16,2017-11-09T13:32:12Z
2017-11-09T11:33:48Z,42.805,6.029,13.2959,4.59978,2472.168,2017-11-09T13:35:15Z
2017-11-09T11:36:51Z,42.805,6.029,13.2955,4.59983,2472.145,2017-11-09T13:38:18Z
2017-11-09T11:39:54Z,42.805,6.029,13.2954,4.59982,2472.137,2017-11-09T13:41:21Z
2017-11-09T11:42:57Z,42.805,6.029,13.2948,4.59969,2472.182,2017-11-09T13:44:24Z
2017-11-09T11:46:00Z,42.805,6.029,13.2950,4.59983,2472.16,2017-11-09T13:47:27Z
2017-11-09T11:49:03Z,42.805,6.029,13.2952,4.59983,2472.16,2017-11-09T13:50:30Z
2017-11-09T11:52:06Z,42.805,6.029,13.2946,4.59998,2472.168,2017-11-09T13:53:33Z
2017-11-09T11:55:09Z,42.805,6.029,13.2952,4.59983,2472.168,2017-11-09T13:56:35Z
2017-11-09T11:58:12Z,42.805,6.029,13.2961,4.59984,2472.16,2017-11-09T13:59:38Z
2017-11-09T12:01:14Z,42.805,6.029,13.2957,4.59982,2472.182,2017-11-09T14:02:41Z
2017-11-09T12:04:17Z,42.805,6.029,13.2954,4.59987,2472.16,2017-11-09T14:05:44Z
2017-11-09T12:07:20Z,42.805,6.029,13.2949,4.59981,2472.16,2017-11-09T14:08:47Z
2017-11-09T12:10:23Z,42.805,6.029,13.2947,4.59974,2472.16,2017-11-09T14:11:50Z
2017-11-09T12:13:26Z,42.805,6.029,13.2949,4.59974,2472.137,2017-11-09T14:14:53Z
2017-11-09T12:16:29Z,42.805,6.029,13.2950,4.59976,2472.182,2017-11-09T14:17:56Z
2017-11-09T12:19:32Z,42.805,6.029,13.2950,4.59970,2472.182,2017-11-09T14:20:59Z
2017-11-09T12:22:35Z,42.805,6.029,13.2949,4.59979,2472.182,2017-11-09T14:24:01Z
2017-11-09T12:25:38Z,42.805,6.029,13.2948,4.59972,2472.16,2017-11-09T14:27:04Z
2017-11-09T12:28:40Z,42.805,6.029,13.2948,4.59977,2472.16,2017-11-09T14:30:07Z
2017-11-09T12:31:43Z,42.805,6.029,13.2951,4.59989,2472.145,2017-11-09T14:33:10Z
2017-11-09T12:34:46Z,42.805,6.029,13.2951,4.59977,2472.145,2017-11-09T14:36:13Z
2017-11-09T12:37:49Z,42.805,6.029,13.2948,4.59992,2472.16,2017-11-09T14:39:16Z
2017-11-09T12:40:52Z,42.805,6.029,13.2951,4.59972,2472.182,2017-11-09T14:42:19Z
2017-11-09T12:43:55Z,42.805,6.029,13.2948,4.59971,2472.168,2017-11-09T14:45:22Z
2017-11-09T12:46:58Z,42.805,6.029,13.2948,4.59970,2472.16,2017-11-09T14:48:25Z
2017-11-09T12:50:01Z,42.805,6.029,13.2944,4.59982,2472.16,2017-11-09T14:51:27Z
2017-11-09T12:53:04Z,42.805,6.029,13.2950,4.59984,2472.137,2017-11-09T14:54:30Z
2017-11-09T12:56:06Z,42.805,6.029,13.2948,4.59972,2472.137,2017-11-09T14:57:33Z
2017-11-09T12:59:09Z,42.805,6.029,13.2947,4.59979,2472.123,2017-11-09T15:00:36Z
2017-11-09T13:02:12Z,42.805,6.029,13.2950,4.59970,2472.137,2017-11-09T15:03:39Z
2017-11-09T13:05:15Z,42.805,6.029,13.2946,4.59969,2472.16,2017-11-09T15:06:42Z
2017-11-09T13:08:18Z,42.805,6.029,13.2951,4.59972,2472.137,2017-11-09T15:09:45Z
2017-11-09T13:11:21Z,42.805,6.029,13.2948,4.59971,2472.115,2017-11-09T15:12:48Z
2017-11-09T13:14:24Z,42.805,6.029,13.2945,4.59972,2472.137,2017-11-09T15:15:51Z
2017-11-09T13:17:27Z,42.805,6.029,13.2956,4.59976,2472.123,2017-11-09T15:18:54Z
2017-11-09T13:20:30Z,42.805,6.029,13.2948,4.59978,2472.137,2017-11-09T15:21:56Z
2017-11-09T13:23:33Z,42.805,6.029,13.2954,4.59981,2472.137,2017-11-09T15:24:59Z
2017-11-09T13:26:35Z,42.805,6.029,13.2951,4.59980,2472.1,2017-11-09T15:28:02Z
2017-11-09T13:29:38Z,42.805,6.029,13.2947,4.59975,2472.123,2017-11-09T15:31:05Z
2017-11-09T13:32:41Z,42.805,6.029,13.2946,4.59979,2472.16,2017-11-09T15:34:08Z
2017-11-09T13:35:44Z,42.805,6.029,13.2945,4.59972,2472.137,2017-11-09T15:37:11Z
2017-11-09T13:38:47Z,42.805,6.029,13.2950,4.59977,2472.115,2017-11-09T15:40:14Z
2017-11-09T13:41:50Z,42.805,6.029,13.2945,4.59975,2472.145,2017-11-09T15:43:17Z
2017-11-09T13:44:53Z,42.805,6.029,13.2951,4.59969,2472.175,2017-11-09T15:46:20Z
2017-11-09T13:47:56Z,42.805,6.029,13.2950,4.59978,2472.123,2017-11-09T15:49:22Z
2017-11-09T13:50:59Z,42.805,6.029,13.2950,4.59976,2472.115,2017-11-09T15:52:25Z
2017-11-09T13:54:01Z,42.805,6.029,13.2951,4.59973,2472.115,2017-11-09T15:55:28Z
2017-11-09T13:57:04Z,42.805,6.029,13.2950,4.59974,2472.137,2017-11-09T15:58:31Z
2017-11-09T14:00:07Z,42.805,6.029,13.2948,4.59977,2472.115,2017-11-09T16:01:34Z
2017-11-09T14:03:10Z,42.805,6.029,13.2952,4.59975,2472.123,2017-11-09T16:04:37Z
2017-11-09T14:06:13Z,42.805,6.029,13.2952,4.59977,2472.092,2017-11-09T16:07:40Z
2017-11-09T14:09:16Z,42.805,6.029,13.2948,4.59974,2472.115,2017-11-09T16:10:43Z
2017-11-09T14:12:19Z,42.805,6.029,13.2946,4.59979,2472.115,2017-11-09T16:13:46Z
2017-11-09T14:15:22Z,42.805,6.029,13.2944,4.59974,2472.115,2017-11-09T16:16:48Z
2017-11-09T14:18:25Z,42.805,6.029,13.2945,4.59974,2472.137,2017-11-09T16:19:51Z
2017-11-09T14:21:27Z,42.805,6.029,13.2950,4.59972,2472.115,2017-11-09T16:22:54Z
2017-11-09T14:24:30Z,42.805,6.029,13.2947,4.59973,2472.1,2017-11-09T16:25:57Z
2017-11-09T14:27:33Z,42.805,6.029,13.2945,4.59968,2472.115,2017-11-09T16:29:00Z
2017-11-09T14:30:36Z,42.805,6.029,13.2943,4.59972,2472.1,2017-11-09T16:32:03Z
2017-11-09T14:33:39Z,42.805,6.029,13.2949,4.59975,2472.137,2017-11-09T16:35:06Z
2017-11-09T14:36:42Z,42.805,6.029,13.2948,4.59979,2472.137,2017-11-09T16:38:09Z
2017-11-09T14:39:45Z,42.805,6.029,13.2947,4.59973,2472.1,2017-11-09T16:41:12Z
2017-11-09T14:42:48Z,42.805,6.029,13.2947,4.59979,2472.092,2017-11-09T16:44:15Z
2017-11-09T14:45:51Z,42.805,6.029,13.2945,4.59972,2472.092,2017-11-09T16:47:17Z
2017-11-09T14:48:53Z,42.805,6.029,13.2950,4.59977,2472.115,2017-11-09T16:50:20Z
2017-11-09T14:51:56Z,42.805,6.029,13.2951,4.59981,2472.092,2017-11-09T16:53:23Z
2017-11-09T14:54:59Z,42.805,6.029,13.2956,4.59978,2472.115,2017-11-09T16:56:26Z
2017-11-09T14:58:02Z,42.805,6.029,13.2945,4.59981,2472.092,2017-11-09T16:59:29Z